VHNCO YLMQ-YSTW

Flight info

Callsign VHNCO
Flight time 1h 16m
Altitude 4500
Route YCNK BAXT YSGT YSCO MUI WEK GST DUA
Aircraft C182/L-SDFG/C

Departure

Time 2026-05-01 09:11
Airport Lake Macquarie Airport (YLMQ)

Arrival

Time 2026-05-01 10:27
Airport Tamworth Airport (YSTW)
Time Latitude Longitude Altitude Speed Heading
2026-05-01 08:56 -33.06639 151.64918 5 ft 0 kts 319°
2026-05-01 09:08 -33.06631 151.64908 8 ft 10 kts 313°
2026-05-01 09:08 -33.06604 151.64758 8 ft 24 kts 263°
2026-05-01 09:08 -33.06630 151.64550 9 ft 26 kts 261°
2026-05-01 09:08 -33.06654 151.64343 8 ft 23 kts 259°
2026-05-01 09:09 -33.06662 151.64234 9 ft 7 kts 250°
2026-05-01 09:09 -33.06663 151.64210 9 ft 0 kts 342°
2026-05-01 09:09 -33.06659 151.64208 9 ft 4 kts 346°
2026-05-01 09:09 -33.06639 151.64226 8 ft 0 kts 76°
2026-05-01 09:10 -33.06623 151.64348 7 ft 43 kts 82°
2026-05-01 09:10 -33.06558 151.64901 38 ft 89 kts 81°
2026-05-01 09:10 -33.06317 151.65591 319 ft 93 kts 45°
2026-05-01 09:11 -33.05630 151.65726 508 ft 103 kts 342°
2026-05-01 09:11 -33.04985 151.65189 553 ft 133 kts 314°
2026-05-01 09:11 -33.04307 151.64466 659 ft 128 kts 327°
2026-05-01 09:11 -33.03616 151.63831 791 ft 126 kts 327°
2026-05-01 09:12 -33.02933 151.63169 923 ft 126 kts 324°
2026-05-01 09:12 -33.02226 151.62553 1046 ft 124 kts 342°
2026-05-01 09:12 -33.01406 151.62379 1162 ft 119 kts 18°
2026-05-01 09:12 -33.00624 151.62678 1290 ft 120 kts 16°
2026-05-01 09:13 -32.99777 151.62586 1415 ft 125 kts 353°
2026-05-01 09:13 -32.98919 151.62353 1494 ft 131 kts 352°
2026-05-01 09:13 -32.98009 151.62085 1502 ft 137 kts 351°
2026-05-01 09:13 -32.97073 151.61798 1504 ft 140 kts 350°
2026-05-01 09:14 -32.96126 151.61657 1506 ft 136 kts
2026-05-01 09:14 -32.95208 151.61673 1502 ft 140 kts
2026-05-01 09:14 -32.94236 151.61668 1498 ft 140 kts
2026-05-01 09:14 -32.93268 151.61639 1495 ft 139 kts 357°
2026-05-01 09:15 -32.92333 151.61322 1499 ft 141 kts 349°
2026-05-01 09:15 -32.91386 151.61016 1492 ft 139 kts 350°
2026-05-01 09:15 -32.90481 151.60714 1493 ft 133 kts 350°
2026-05-01 09:15 -32.89612 151.60437 1477 ft 126 kts 352°
2026-05-01 09:16 -32.88765 151.60132 1490 ft 128 kts 345°
2026-05-01 09:16 -32.88046 151.59498 1484 ft 132 kts 315°
2026-05-01 09:16 -32.87545 151.58610 1489 ft 127 kts 309°
2026-05-01 09:17 -32.86523 151.56832 1484 ft 131 kts 309°
2026-05-01 09:17 -32.86013 151.55940 1487 ft 131 kts 309°
2026-05-01 09:17 -32.84987 151.54142 1492 ft 133 kts 309°
2026-05-01 09:18 -32.84429 151.53254 1407 ft 137 kts 322°
2026-05-01 09:18 -32.82779 151.52004 1305 ft 139 kts 328°
2026-05-01 09:19 -32.81312 151.50566 1369 ft 140 kts 318°
2026-05-01 09:19 -32.80858 151.49515 1313 ft 148 kts 285°
2026-05-01 09:19 -32.80734 151.48314 1362 ft 145 kts 278°
2026-05-01 09:20 -32.80746 151.45911 1390 ft 145 kts 256°
2026-05-01 09:20 -32.81362 151.43593 1417 ft 149 kts 252°
2026-05-01 09:21 -32.81962 151.41257 1548 ft 145 kts 253°
2026-05-01 09:21 -32.82395 151.40147 1492 ft 152 kts 237°
2026-05-01 09:21 -32.83243 151.37893 1490 ft 146 kts 251°
2026-05-01 09:22 -32.83744 151.35543 1489 ft 149 kts 263°
2026-05-01 09:22 -32.84123 151.33120 1495 ft 148 kts 263°
2026-05-01 09:23 -32.84111 151.31970 1566 ft 147 kts 277°
2026-05-01 09:23 -32.82722 151.30980 1345 ft 143 kts 14°
2026-05-01 09:24 -32.81019 151.31690 901 ft 122 kts 37°
2026-05-01 09:24 -32.80467 151.32352 750 ft 106 kts 68°
2026-05-01 09:24 -32.79749 151.33674 430 ft 91 kts 34°
2026-05-01 09:25 -32.78577 151.33995 214 ft 72 kts
2026-05-01 09:25 -32.77448 151.34014 421 ft 101 kts 327°
2026-05-01 09:26 -32.76805 151.33524 547 ft 117 kts 330°
2026-05-01 09:26 -32.75336 151.32370 778 ft 132 kts 328°
2026-05-01 09:26 -32.74569 151.31761 882 ft 134 kts 327°
2026-05-01 09:27 -32.72931 151.30905 1075 ft 128 kts 14°
2026-05-01 09:27 -32.72065 151.31175 1189 ft 130 kts 17°
2026-05-01 09:27 -32.71183 151.31437 1290 ft 132 kts 18°
2026-05-01 09:28 -32.70289 151.31703 1391 ft 131 kts 17°
2026-05-01 09:28 -32.69412 151.31968 1496 ft 130 kts 20°
2026-05-01 09:28 -32.68510 151.32207 1494 ft 134 kts 18°
2026-05-01 09:28 -32.67600 151.32459 1497 ft 135 kts 18°
2026-05-01 09:29 -32.65777 151.32381 1488 ft 148 kts 322°
2026-05-01 09:29 -32.65307 151.31295 1494 ft 151 kts 288°
2026-05-01 09:30 -32.64649 151.28972 1493 ft 149 kts 292°
2026-05-01 09:30 -32.64274 151.27828 1496 ft 149 kts 293°
2026-05-01 09:30 -32.63507 151.25525 1499 ft 151 kts 293°
2026-05-01 09:31 -32.63121 151.24375 1506 ft 150 kts 293°
2026-05-01 09:31 -32.62737 151.23210 1505 ft 153 kts 293°
2026-05-01 09:31 -32.61955 151.20871 1486 ft 150 kts 294°
2026-05-01 09:32 -32.61451 151.19831 1487 ft 143 kts 317°
2026-05-01 09:32 -32.59907 151.18412 1492 ft 140 kts 329°
2026-05-01 09:32 -32.59128 151.17706 1489 ft 141 kts 327°
2026-05-01 09:33 -32.58616 151.17237 1491 ft 141 kts 328°
2026-05-01 09:33 -32.57834 151.16524 1495 ft 142 kts 328°
2026-05-01 09:33 -32.56269 151.15101 1494 ft 142 kts 327°
2026-05-01 09:34 -32.55494 151.14398 1490 ft 143 kts 327°
2026-05-01 09:34 -32.54709 151.13682 1500 ft 142 kts 327°
2026-05-01 09:34 -32.53135 151.12258 1504 ft 141 kts 327°
2026-05-01 09:35 -32.52357 151.11567 1492 ft 139 kts 327°
2026-05-01 09:35 -32.50806 151.10141 1488 ft 142 kts 327°
2026-05-01 09:35 -32.50023 151.09434 1491 ft 142 kts 327°
2026-05-01 09:36 -32.49238 151.08723 1491 ft 143 kts 327°
2026-05-01 09:36 -32.48445 151.08008 1490 ft 143 kts 327°
2026-05-01 09:36 -32.47660 151.07296 1489 ft 142 kts 327°
2026-05-01 09:36 -32.46877 151.06586 1490 ft 142 kts 328°
2026-05-01 09:37 -32.46093 151.05876 1486 ft 141 kts 327°
2026-05-01 09:37 -32.44540 151.04469 1491 ft 142 kts 327°
2026-05-01 09:37 -32.43757 151.03750 1495 ft 145 kts 324°
2026-05-01 09:38 -32.42195 151.02353 1487 ft 137 kts 327°
2026-05-01 09:38 -32.41420 151.01648 1488 ft 138 kts 324°
2026-05-01 09:38 -32.40659 151.00953 1486 ft 142 kts 327°
2026-05-01 09:39 -32.39307 150.99354 1485 ft 136 kts 287°
2026-05-01 09:39 -32.39157 150.98240 1482 ft 138 kts 275°
2026-05-01 09:39 -32.39143 150.97121 1469 ft 134 kts 251°
2026-05-01 09:40 -32.39215 150.96029 1481 ft 140 kts 290°
2026-05-01 09:40 -32.37678 150.95100 1472 ft 122 kts 17°
2026-05-01 09:40 -32.36854 150.95308 1483 ft 123 kts 19°
2026-05-01 09:41 -32.36037 150.95540 1485 ft 121 kts 21°
2026-05-01 09:41 -32.34419 150.95969 1477 ft 117 kts 18°
2026-05-01 09:41 -32.33608 150.95917 1538 ft 117 kts 359°
2026-05-01 09:42 -32.32833 150.95761 1674 ft 110 kts 359°
2026-05-01 09:42 -32.32083 150.95610 1833 ft 107 kts 359°
2026-05-01 09:42 -32.30691 150.95272 2154 ft 99 kts 359°
2026-05-01 09:43 -32.29741 150.94110 2461 ft 102 kts 304°
2026-05-01 09:43 -32.29419 150.93394 2614 ft 99 kts 304°
2026-05-01 09:43 -32.29097 150.92676 2784 ft 100 kts 303°
2026-05-01 09:44 -32.28432 150.91282 3114 ft 95 kts 307°
2026-05-01 09:44 -32.28052 150.90680 3274 ft 89 kts 312°
2026-05-01 09:44 -32.27690 150.90100 3435 ft 87 kts 311°
2026-05-01 09:45 -32.27341 150.89525 3602 ft 85 kts 311°
2026-05-01 09:45 -32.26695 150.88413 3910 ft 78 kts 311°
2026-05-01 09:45 -32.26403 150.87901 4037 ft 72 kts 310°
2026-05-01 09:46 -32.26122 150.87413 4110 ft 72 kts 311°
2026-05-01 09:46 -32.25828 150.86928 4317 ft 75 kts 309°
2026-05-01 09:46 -32.25502 150.86399 4545 ft 81 kts 312°
2026-05-01 09:46 -32.25144 150.85840 4798 ft 91 kts 313°
2026-05-01 09:47 -32.24736 150.85215 5030 ft 101 kts 322°
2026-05-01 09:47 -32.24038 150.84948 5103 ft 117 kts 356°
2026-05-01 09:47 -32.23167 150.84790 5089 ft 137 kts 355°
2026-05-01 09:47 -32.22166 150.84620 4969 ft 152 kts 355°
2026-05-01 09:48 -32.21088 150.84450 4823 ft 159 kts 356°
2026-05-01 09:48 -32.19981 150.84263 4668 ft 162 kts 356°
2026-05-01 09:48 -32.18859 150.84070 4507 ft 164 kts 355°
2026-05-01 09:48 -32.17747 150.83882 4485 ft 158 kts 356°
2026-05-01 09:49 -32.16667 150.83691 4488 ft 157 kts 355°
2026-05-01 09:49 -32.15590 150.83508 4487 ft 155 kts 355°
2026-05-01 09:49 -32.14525 150.83351 4486 ft 153 kts 356°
2026-05-01 09:49 -32.13466 150.83199 4463 ft 153 kts 356°
2026-05-01 09:50 -32.12425 150.83049 4261 ft 149 kts 356°
2026-05-01 09:50 -32.11425 150.83110 4052 ft 142 kts 17°
2026-05-01 09:50 -32.10509 150.83384 3847 ft 130 kts 17°
2026-05-01 09:50 -32.09654 150.83621 3637 ft 123 kts 17°
2026-05-01 09:51 -32.08889 150.83972 3422 ft 116 kts 33°
2026-05-01 09:51 -32.08201 150.84420 3182 ft 108 kts 36°
2026-05-01 09:51 -32.07661 150.84958 2981 ft 94 kts 45°
2026-05-01 09:51 -32.07229 150.85420 2835 ft 81 kts 46°
2026-05-01 09:52 -32.06794 150.85822 2576 ft 82 kts 34°
2026-05-01 09:52 -32.06157 150.86066 1986 ft 106 kts
2026-05-01 09:52 -32.05431 150.85870 1482 ft 110 kts 336°
2026-05-01 09:52 -32.04865 150.85253 990 ft 109 kts 304°
2026-05-01 09:53 -32.04516 150.84556 849 ft 91 kts 299°
2026-05-01 09:53 -32.04206 150.83959 763 ft 81 kts 301°
2026-05-01 09:53 -32.03930 150.83436 731 ft 66 kts 301°
2026-05-01 09:53 -32.03695 150.82987 737 ft 80 kts 303°
2026-05-01 09:54 -32.03371 150.82391 1007 ft 86 kts 296°
2026-05-01 09:54 -32.03430 150.81713 1287 ft 88 kts 221°
2026-05-01 09:54 -32.03983 150.81708 1528 ft 93 kts 135°
2026-05-01 09:54 -32.04120 150.82468 1841 ft 99 kts 80°
2026-05-01 09:55 -32.03878 150.83230 2119 ft 105 kts 72°
2026-05-01 09:55 -32.03624 150.84080 2277 ft 115 kts 72°
2026-05-01 09:55 -32.03360 150.84988 2425 ft 119 kts 72°
2026-05-01 09:55 -32.03088 150.85928 2570 ft 123 kts 72°
2026-05-01 09:56 -32.02811 150.86895 2705 ft 126 kts 72°
2026-05-01 09:56 -32.02536 150.87867 2836 ft 124 kts 72°
2026-05-01 09:56 -32.02265 150.88832 2955 ft 124 kts 71°
2026-05-01 09:56 -32.01873 150.89727 2976 ft 128 kts 43°
2026-05-01 09:57 -32.00997 150.89938 2976 ft 140 kts 349°
2026-05-01 09:57 -32.00118 150.89483 2988 ft 138 kts 339°
2026-05-01 09:57 -31.99249 150.88967 2990 ft 141 kts 338°
2026-05-01 09:57 -31.98364 150.88442 2993 ft 144 kts 338°
2026-05-01 09:58 -31.97466 150.87914 2991 ft 145 kts 338°
2026-05-01 09:58 -31.96563 150.87382 2990 ft 146 kts 338°
2026-05-01 09:58 -31.95655 150.86846 2991 ft 146 kts 338°
2026-05-01 09:58 -31.94743 150.86334 2984 ft 144 kts 346°
2026-05-01 09:59 -31.93772 150.86097 2985 ft 143 kts 354°
2026-05-01 09:59 -31.92792 150.85886 2988 ft 144 kts 354°
2026-05-01 09:59 -31.91806 150.85674 2988 ft 144 kts 354°
2026-05-01 09:59 -31.90826 150.85647 2979 ft 140 kts 10°
2026-05-01 10:00 -31.89846 150.85778 2981 ft 142 kts 10°
2026-05-01 10:00 -31.88861 150.85903 2983 ft 143 kts 10°
2026-05-01 10:00 -31.87873 150.86028 2982 ft 143 kts 10°
2026-05-01 10:00 -31.86891 150.86151 2977 ft 141 kts
2026-05-01 10:01 -31.86064 150.86645 2963 ft 136 kts 54°
2026-05-01 10:01 -31.85628 150.87599 2989 ft 132 kts 63°
2026-05-01 10:01 -31.85138 150.88505 2983 ft 133 kts 45°
2026-05-01 10:01 -31.84371 150.89119 2973 ft 134 kts 26°
2026-05-01 10:02 -31.83432 150.89083 2981 ft 141 kts 348°
2026-05-01 10:02 -31.82481 150.88768 2985 ft 143 kts 349°
2026-05-01 10:02 -31.81514 150.88460 2988 ft 145 kts 349°
2026-05-01 10:02 -31.80534 150.88145 2992 ft 147 kts 349°
2026-05-01 10:03 -31.79545 150.87834 2994 ft 147 kts 349°
2026-05-01 10:03 -31.78617 150.87344 2990 ft 148 kts 329°
2026-05-01 10:03 -31.77863 150.86528 2968 ft 151 kts 303°
2026-05-01 10:03 -31.77394 150.85428 2974 ft 151 kts 299°
2026-05-01 10:04 -31.76923 150.84321 2978 ft 152 kts 299°
2026-05-01 10:04 -31.76455 150.83205 2981 ft 153 kts 299°
2026-05-01 10:04 -31.75974 150.82088 2981 ft 153 kts 300°
2026-05-01 10:04 -31.75471 150.80985 2980 ft 152 kts 300°
2026-05-01 10:05 -31.74777 150.80082 2973 ft 149 kts 323°
2026-05-01 10:05 -31.73981 150.79288 2973 ft 151 kts 322°
2026-05-01 10:05 -31.73147 150.78582 2972 ft 146 kts 335°
2026-05-01 10:05 -31.72239 150.78027 2978 ft 149 kts 336°
2026-05-01 10:06 -31.71322 150.77458 2982 ft 149 kts 335°
2026-05-01 10:06 -31.70405 150.76882 2980 ft 149 kts 335°
2026-05-01 10:06 -31.69488 150.76314 2984 ft 148 kts 335°
2026-05-01 10:06 -31.68580 150.75747 2979 ft 147 kts 336°
2026-05-01 10:07 -31.67682 150.75179 2977 ft 145 kts 336°
2026-05-01 10:07 -31.66786 150.74606 2970 ft 148 kts 335°
2026-05-01 10:07 -31.65876 150.74032 2972 ft 149 kts 336°
2026-05-01 10:07 -31.64963 150.73449 2970 ft 149 kts 337°
2026-05-01 10:08 -31.63183 150.72230 2970 ft 147 kts 335°
2026-05-01 10:08 -31.62313 150.71622 2968 ft 145 kts 336°
2026-05-01 10:08 -31.61451 150.71009 2972 ft 147 kts 335°
2026-05-01 10:09 -31.60573 150.70381 2971 ft 148 kts 335°
2026-05-01 10:09 -31.59645 150.69936 2967 ft 143 kts 349°
2026-05-01 10:09 -31.58700 150.69579 2967 ft 143 kts 349°
2026-05-01 10:09 -31.57751 150.69213 2965 ft 144 kts 348°
2026-05-01 10:10 -31.56807 150.68840 2960 ft 142 kts 349°
2026-05-01 10:10 -31.55884 150.68479 2963 ft 143 kts 349°
2026-05-01 10:10 -31.54015 150.67765 2954 ft 139 kts 345°
2026-05-01 10:11 -31.53123 150.67372 2957 ft 138 kts 349°
2026-05-01 10:11 -31.52204 150.67020 2958 ft 140 kts 349°
2026-05-01 10:11 -31.51273 150.66658 2963 ft 142 kts 348°
2026-05-01 10:11 -31.50324 150.66308 2969 ft 143 kts 349°
2026-05-01 10:12 -31.49371 150.65941 2963 ft 143 kts 347°
2026-05-01 10:12 -31.48736 150.65687 2963 ft 143 kts 348°
2026-05-01 10:12 -31.46524 150.64834 2964 ft 143 kts 347°
2026-05-01 10:13 -31.45574 150.64467 2967 ft 145 kts 350°
2026-05-01 10:13 -31.44602 150.64084 2966 ft 148 kts 349°
2026-05-01 10:13 -31.43631 150.63703 2967 ft 147 kts 348°
2026-05-01 10:14 -31.41682 150.62953 2944 ft 147 kts 348°
2026-05-01 10:14 -31.40706 150.62739 2948 ft 141 kts
2026-05-01 10:14 -31.39733 150.62762 2945 ft 138 kts
2026-05-01 10:14 -31.38767 150.62807 2948 ft 141 kts
2026-05-01 10:15 -31.37775 150.62848 2955 ft 145 kts
2026-05-01 10:15 -31.36763 150.62876 2943 ft 145 kts
2026-05-01 10:15 -31.35751 150.62898 2955 ft 147 kts
2026-05-01 10:15 -31.34731 150.62932 2947 ft 146 kts
2026-05-01 10:16 -31.33714 150.62965 2957 ft 147 kts
2026-05-01 10:16 -31.32698 150.62979 2945 ft 145 kts
2026-05-01 10:16 -31.30996 150.63913 2944 ft 135 kts 37°
2026-05-01 10:17 -31.30215 150.64510 2943 ft 135 kts 38°
2026-05-01 10:17 -31.28635 150.65699 2946 ft 134 kts 38°
2026-05-01 10:17 -31.28117 150.66087 2957 ft 134 kts 37°
2026-05-01 10:18 -31.26272 150.67462 2955 ft 136 kts 38°
2026-05-01 10:18 -31.25730 150.67863 2958 ft 137 kts 38°
2026-05-01 10:18 -31.24862 150.68326 2955 ft 140 kts 21°
2026-05-01 10:19 -31.23606 150.68692 2952 ft 140 kts 20°
2026-05-01 10:19 -31.22663 150.68985 2951 ft 141 kts 21°
2026-05-01 10:19 -31.22022 150.69180 2949 ft 141 kts 21°
2026-05-01 10:20 -31.20178 150.69704 2949 ft 127 kts 20°
2026-05-01 10:20 -31.19337 150.69946 2946 ft 122 kts 20°
2026-05-01 10:20 -31.18520 150.70162 2942 ft 119 kts 20°
2026-05-01 10:20 -31.17716 150.70376 2947 ft 118 kts 20°
2026-05-01 10:21 -31.16917 150.70581 2947 ft 117 kts 20°
2026-05-01 10:21 -31.15392 150.71044 2949 ft 107 kts 35°
2026-05-01 10:21 -31.14843 150.71574 2952 ft 99 kts 46°
2026-05-01 10:22 -31.14658 150.73008 2954 ft 97 kts 96°
2026-05-01 10:22 -31.14869 150.74571 2966 ft 98 kts 95°
2026-05-01 10:23 -31.14973 150.75356 2960 ft 99 kts 96°
2026-05-01 10:23 -31.14494 150.76783 2953 ft 98 kts 61°
2026-05-01 10:23 -31.14133 150.77472 2963 ft 102 kts 60°
2026-05-01 10:24 -31.13380 150.78874 2969 ft 100 kts 59°
2026-05-01 10:24 -31.12134 150.79857 2682 ft 124 kts 12°
2026-05-01 10:25 -31.10435 150.80089 2646 ft 120 kts 13°
2026-05-01 10:25 -31.08753 150.80410 2359 ft 128 kts 16°
2026-05-01 10:26 -31.07941 150.80707 2237 ft 117 kts 30°
2026-05-01 10:26 -31.07396 150.81287 2014 ft 100 kts 67°
2026-05-01 10:26 -31.07635 150.82705 1482 ft 90 kts 130°
2026-05-01 10:27 -31.08388 150.83614 1332 ft 58 kts 127°
2026-05-01 10:27 -31.08544 150.83891 1337 ft 9 kts 12°
2026-05-01 10:28 -31.08504 150.83943 1335 ft 8 kts 134°